Tracking 19817 objects as of 21-Aug-2019
HD Live streaming from Space Station
objects crossing your sky now

NAVSTAR 75 (USA 265)

Track NAVSTAR 75 (USA 265) now!
NAVSTAR 75 (USA 265) is classified as:


NORAD ID: 41019
Int'l Code: 2015-062A
Perigee: 20,060.8 km
Apogee: 20,317.8 km
Inclination: 55.2 °
Period: 718.0 minutes
Semi major axis: 26560 km
RCS: Unknown
Launch date: October 31, 2015
Source: United States (US)
Launch site: AIR FORCE EASTERN TEST RANGE (AFETR)
PRN: 10

NAVSTAR 75 (USA 265), also known as GPS IIF-11 is a navigation satellite deployed in Plane E of the GPS constellation.
aabbcc
Your satellite tracking list
Your tracking list is empty




NASA's NSSDC Master Catalog

Two Line Element Set (TLE):
1 41019U 15062A   19231.37858277 -.00000007  00000-0  00000+0 0  9999
2 41019  55.2040 128.7563 0048378 206.4827 153.3309  2.00564702 27812
Source of the keplerian elements: AFSPC